Location: Navajo
(48.7922°N, 105.0603°W)
Time: 03:30:19
(UTC+00:00)

CUBEBUG 2 - Pass Details

Date: 05 July 2022
Orbit: 584 x 692 km, 97.7° (Epoch: 11 August)

Event Time Altitude Azimuth Distance (km) Brightness Sun altitude
Rises 08:40:21 0° 32° (NNE) 2,850 ? -15.3°
Reaches altitude 10° 08:43:49 10° 63° (ENE) 1,960 ? -15.1°
Maximum altitude 08:45:35 12° 88° (E) 1,818 ? -15.0°
Drops below altitude 10° 08:47:22 10° 113° (ESE) 1,977 ? -14.9°
Enters shadow 08:50:43 - 142° (SE) 2,849 ? -14.6°
